| time (UTC) | temp F | wind direction | speed MPH | gust MPH | rain 1hr in | rain 24hr in | rain mn in | humidity % | barometer mb |
| 20260509193914 | 59 | 11 | 0.0 | 2.0 | 0.00 | 0.00 | 0.00 | 48 | 1017.6 |
| 20260509193151 | 59 | 154 | 0.0 | 3.0 | 0.00 | 0.00 | 0.00 | 50 | 1017.5 |
| 20260509192645 | 59 | 146 | 0.0 | 3.0 | 0.00 | 0.00 | 0.00 | 52 | 1017.5 |
| 20260509192138 | 59 | 67 | 0.0 | 3.0 | 0.00 | 0.00 | 0.00 | 54 | 1017.6 |
| 20260509191632 | 60 | 251 | 0.0 | 1.0 | 0.00 | 0.00 | 0.00 | 56 | 1017.5 |
| 20260509191125 | 60 | 31 | 0.0 | 2.0 | 0.00 | 0.00 | 0.00 | 57 | 1017.4 |
| 20260509190619 | 60 | 147 | 1.0 | 3.0 | 0.00 | 0.00 | 0.00 | 58 | 1017.4 |
| 20260509190114 | 60 | 94 | 1.0 | 3.0 | 0.00 | 0.00 | 0.00 | 58 | 1017.4 |
| 20260509185608 | 60 | 46 | 1.0 | 4.0 | 0.00 | 0.00 | 0.00 | 59 | 1017.3 |
| 20260509185108 | 61 | 123 | 1.0 | 4.0 | 0.00 | 0.00 | 0.00 | 58 | 1017.3 |
| 20260509184557 | 61 | 308 | 1.0 | 4.0 | 0.00 | 0.00 | 0.00 | 58 | 1017.3 |
| 20260509184051 | 61 | 73 | 1.0 | 3.0 | 0.00 | 0.00 | 0.00 | 58 | 1017.3 |
| 20260509183810 | 62 | 254 | 1.0 | 3.0 | 0.00 | 0.00 | 0.00 | 57 | 1017.3 |
| 20260509183528 | 62 | 257 | 1.0 | 4.0 | 0.00 | 0.00 | 0.00 | 57 | 1017.3 |
| 20260509182531 | 62 | 95 | 1.0 | 4.0 | 0.00 | 0.00 | 0.00 | 57 | 1017.3 |
| 20260509182033 | 62 | 68 | 1.0 | 6.0 | 0.00 | 0.00 | 0.00 | 57 | 1017.3 |
| 20260509181531 | 63 | 79 | 1.0 | 6.0 | 0.00 | 0.00 | 0.00 | 55 | 1017.3 |
| 20260509181031 | 64 | 28 | 1.0 | 3.0 | 0.00 | 0.00 | 0.00 | 55 | 1017.4 |
| 20260509180531 | 64 | 1 | 1.0 | 3.0 | 0.00 | 0.00 | 0.00 | 54 | 1017.3 |
| 20260509180316 | 64 | 48 | 1.0 | 4.0 | 0.00 | 0.00 | 0.00 | 54 | 1017.3 |
| 20260509175535 | 64 | 135 | 1.0 | 4.0 | 0.00 | 0.00 | 0.00 | 53 | 1017.4 |
| 20260509175033 | 64 | 113 | 1.0 | 6.0 | 0.00 | 0.00 | 0.00 | 53 | 1017.4 |
| 20260509174535 | 65 | 65 | 1.0 | 6.0 | 0.00 | 0.00 | 0.00 | 52 | 1017.3 |
| 20260509174515 | 65 | 45 | 0.0 | 5.0 | 0.00 | 0.00 | 0.00 | 50 | 1017.4 |
| 20260509173757 | 65 | 30 | 1.0 | 5.0 | 0.00 | 0.00 | 0.00 | 49 | 1017.4 |
| 20260509173032 | 65 | 50 | 1.0 | 4.0 | 0.00 | 0.00 | 0.00 | 50 | 1017.4 |
| 20260509172751 | 65 | 8 | 1.0 | 4.0 | 0.00 | 0.00 | 0.00 | 49 | 1017.4 |
| 20260509172028 | 65 | 144 | 0.0 | 4.0 | 0.00 | 0.00 | 0.00 | 49 | 1017.5 |
| 20260509171542 | 65 | 250 | 1.0 | 4.0 | 0.00 | 0.00 | 0.00 | 49 | 1017.5 |
| 20260509171028 | 65 | 41 | 1.0 | 4.0 | 0.00 | 0.00 | 0.00 | 47 | 1017.4 |
| 20260509170531 | 65 | 48 | 1.0 | 6.0 | 0.00 | 0.00 | 0.00 | 49 | 1017.3 |
| 20260509170026 | 65 | 113 | 1.0 | 6.0 | 0.00 | 0.00 | 0.00 | 48 | 1017.3 |
| 20260509165527 | 66 | 99 | 0.0 | 3.0 | 0.00 | 0.00 | 0.00 | 47 | 1017.3 |
| 20260509165024 | 65 | 27 | 1.0 | 6.0 | 0.00 | 0.00 | 0.00 | 47 | 1017.3 |
| 20260509164523 | 65 | 191 | 2.0 | 6.0 | 0.00 | 0.00 | 0.00 | 48 | 1017.3 |
| 20260509164021 | 66 | 122 | 1.0 | 5.0 | 0.00 | 0.00 | 0.00 | 46 | 1017.3 |
| 20260509163745 | 66 | 44 | 1.0 | 3.0 | 0.00 | 0.00 | 0.00 | 47 | 1017.3 |
| 20260509163240 | 66 | 72 | 1.0 | 4.0 | 0.00 | 0.00 | 0.00 | 47 | 1017.2 |
| 20260509162521 | 65 | 63 | 2.0 | 4.0 | 0.00 | 0.00 | 0.00 | 48 | 1017.2 |
| 20260509162020 | 65 | 36 | 2.0 | 6.0 | 0.00 | 0.00 | 0.00 | 47 | 1017.2 |
| 20260509161517 | 65 | 119 | 2.0 | 6.0 | 0.00 | 0.00 | 0.00 | 47 | 1017.2 |
| 20260509161241 | 65 | 89 | 1.0 | 5.0 | 0.00 | 0.00 | 0.00 | 47 | 1017.3 |
| 20260509160747 | 65 | 143 | 2.0 | 5.0 | 0.00 | 0.00 | 0.00 | 47 | 1017.4 |
| 20260509160021 | 65 | 107 | 2.0 | 6.0 | 0.00 | 0.00 | 0.00 | 48 | 1017.3 |
| 20260509155514 | 66 | 114 | 2.0 | 6.0 | 0.00 | 0.00 | 0.00 | 46 | 1017.4 |
| 20260509155014 | 65 | 240 | 2.0 | 5.0 | 0.00 | 0.00 | 0.00 | 45 | 1017.4 |
| 20260509154516 | 65 | 54 | 2.0 | 7.0 | 0.00 | 0.00 | 0.00 | 48 | 1017.2 |
| 20260509154018 | 65 | 350 | 2.0 | 7.0 | 0.00 | 0.00 | 0.00 | 46 | 1017.2 |
| 20260509153516 | 65 | 123 | 2.0 | 7.0 | 0.00 | 0.00 | 0.00 | 46 | 1017.3 |
| 20260509153013 | 65 | 13 | 2.0 | 7.0 | 0.00 | 0.00 | 0.00 | 46 | 1017.4 |
| 20260509152514 | 66 | 95 | 2.0 | 6.0 | 0.00 | 0.00 | 0.00 | 46 | 1017.6 |
| 20260509152016 | 66 | 64 | 2.0 | 5.0 | 0.00 | 0.00 | 0.00 | 46 | 1017.6 |
| 20260509151518 | 66 | 81 | 2.0 | 6.0 | 0.00 | 0.00 | 0.00 | 47 | 1017.5 |
| 20260509151237 | 66 | 122 | 2.0 | 6.0 | 0.00 | 0.00 | 0.00 | 47 | 1017.5 |
| 20260509150511 | 67 | 26 | 2.0 | 5.0 | 0.00 | 0.00 | 0.00 | 46 | 1017.5 |
| 20260509150010 | 67 | 123 | 2.0 | 8.0 | 0.00 | 0.00 | 0.00 | 44 | 1017.5 |
| 20260509145512 | 67 | 75 | 2.0 | 8.0 | 0.00 | 0.00 | 0.00 | 42 | 1017.6 |
| 20260509145010 | 67 | 16 | 1.0 | 5.0 | 0.00 | 0.00 | 0.00 | 45 | 1017.6 |
| 20260509144508 | 68 | 33 | 1.0 | 4.0 | 0.00 | 0.00 | 0.00 | 45 | 1017.7 |
| 20260509144015 | 67 | 78 | 0.0 | 4.0 | 0.00 | 0.00 | 0.00 | 45 | 1017.7 |
| 20260509143729 | 67 | 98 | 1.0 | 5.0 | 0.00 | 0.00 | 0.00 | 47 | 1017.8 |
| 20260509143232 | 66 | 47 | 1.0 | 5.0 | 0.00 | 0.00 | 0.00 | 47 | 1017.8 |
| 20260509142501 | 66 | 30 | 1.0 | 3.0 | 0.00 | 0.00 | 0.00 | 48 | 1018.0 |
| 20260509141955 | 65 | 108 | 2.0 | 6.0 | 0.00 | 0.00 | 0.00 | 45 | 1018.1 |
| 20260509141450 | 65 | 105 | 3.0 | 7.0 | 0.00 | 0.00 | 0.00 | 48 | 1018.1 |
| 20260509140946 | 65 | 107 | 2.0 | 7.0 | 0.00 | 0.00 | 0.00 | 46 | 1018.3 |
| 20260509140439 | 67 | 108 | 1.0 | 7.0 | 0.00 | 0.00 | 0.00 | 45 | 1018.2 |
| 20260509135934 | 67 | 194 | 1.0 | 4.0 | 0.00 | 0.00 | 0.00 | 48 | 1018.2 |
| 20260509135426 | 67 | 79 | 1.0 | 4.0 | 0.00 | 0.00 | 0.00 | 47 | 1018.3 |
| 20260509134921 | 67 | 146 | 0.0 | 3.0 | 0.00 | 0.00 | 0.00 | 48 | 1018.3 |
| 20260509134419 | 66 | 236 | 1.0 | 8.0 | 0.00 | 0.00 | 0.00 | 48 | 1018.3 |
| 20260509133929 | 66 | 46 | 2.0 | 8.0 | 0.00 | 0.00 | 0.00 | 49 | 1018.3 |
| 20260509133415 | 66 | 35 | 2.0 | 7.0 | 0.00 | 0.00 | 0.00 | 48 | 1018.3 |
| 20260509132929 | 66 | 242 | 1.0 | 4.0 | 0.00 | 0.00 | 0.00 | 49 | 1018.3 |
| 20260509132414 | 66 | 18 | 1.0 | 5.0 | 0.00 | 0.00 | 0.00 | 48 | 1018.4 |
| 20260509131913 | 66 | 220 | 2.0 | 7.0 | 0.00 | 0.00 | 0.00 | 48 | 1018.3 |
| 20260509131410 | 66 | 96 | 2.0 | 7.0 | 0.00 | 0.00 | 0.00 | 49 | 1018.4 |
| 20260509130914 | 66 | 120 | 1.0 | 6.0 | 0.00 | 0.00 | 0.00 | 48 | 1018.5 |
| 20260509130409 | 67 | 12 | 1.0 | 6.0 | 0.00 | 0.00 | 0.00 | 48 | 1018.5 |
| 20260509130148 | 66 | 318 | 1.0 | 5.0 | 0.00 | 0.00 | 0.00 | 49 | 1018.6 |
| 20260509125409 | 66 | 34 | 1.0 | 6.0 | 0.00 | 0.00 | 0.00 | 45 | 1018.7 |
| 20260509124908 | 66 | 287 | 1.0 | 6.0 | 0.00 | 0.00 | 0.00 | 47 | 1018.8 |
| 20260509124407 | 66 | 252 | 1.0 | 4.0 | 0.00 | 0.00 | 0.00 | 51 | 1018.9 |
| 20260509123907 | 65 | 76 | 1.0 | 4.0 | 0.00 | 0.00 | 0.00 | 49 | 1018.9 |
| 20260509123631 | 65 | 160 | 2.0 | 6.0 | 0.00 | 0.00 | 0.00 | 51 | 1018.9 |
| 20260509123143 | 65 | 95 | 2.0 | 6.0 | 0.00 | 0.00 | 0.00 | 49 | 1019.0 |
| 20260509122411 | 65 | 120 | 2.0 | 5.0 | 0.00 | 0.00 | 0.00 | 49 | 1019.0 |
| 20260509121905 | 66 | 79 | 1.0 | 5.0 | 0.00 | 0.00 | 0.00 | 48 | 1019.1 |
| 20260509121355 | 66 | 50 | 1.0 | 5.0 | 0.00 | 0.00 | 0.00 | 47 | 1019.1 |
| 20260509120848 | 66 | 286 | 1.0 | 5.0 | 0.00 | 0.00 | 0.00 | 51 | 1019.2 |
| 20260509120357 | 65 | 72 | 2.0 | 6.0 | 0.00 | 0.00 | 0.00 | 49 | 1019.2 |
| 20260509120108 | 65 | 83 | 2.0 | 6.0 | 0.00 | 0.00 | 0.00 | 49 | 1019.2 |
| 20260509115332 | 65 | 131 | 1.0 | 7.0 | 0.00 | 0.00 | 0.00 | 49 | 1019.2 |
| 20260509114825 | 65 | 24 | 1.0 | 7.0 | 0.00 | 0.00 | 0.00 | 48 | 1019.3 |
| 20260509114319 | 65 | 30 | 0.0 | 3.0 | 0.00 | 0.00 | 0.00 | 47 | 1019.3 |
| 20260509114259 | 65 | 256 | 1.0 | 6.0 | 0.00 | 0.00 | 0.00 | 49 | 1019.3 |
| 20260509113309 | 64 | 162 | 2.0 | 6.0 | 0.00 | 0.00 | 0.00 | 49 | 1019.5 |
| 20260509112801 | 64 | 98 | 2.0 | 10.0 | 0.00 | 0.00 | 0.00 | 50 | 1019.5 |
| 20260509112256 | 64 | 25 | 2.0 | 10.0 | 0.00 | 0.00 | 0.00 | 50 | 1019.6 |
| 20260509111751 | 64 | 221 | 2.0 | 5.0 | 0.00 | 0.00 | 0.00 | 53 | 1019.5 |
| 20260509111742 | 64 | 129 | 2.0 | 6.0 | 0.00 | 0.00 | 0.00 | 54 | 1019.5 |
| 20260509110736 | 63 | 151 | 3.0 | 9.0 | 0.00 | 0.00 | 0.00 | 55 | 1019.5 |
| 20260509110231 | 63 | 44 | 3.0 | 8.0 | 0.00 | 0.00 | 0.00 | 55 | 1019.4 |
| 20260509105724 | 63 | 127 | 3.0 | 8.0 | 0.00 | 0.00 | 0.00 | 55 | 1019.5 |
| 20260509105218 | 63 | 98 | 3.0 | 8.0 | 0.00 | 0.00 | 0.00 | 55 | 1019.6 |
| 20260509104714 | 63 | 119 | 3.0 | 8.0 | 0.00 | 0.00 | 0.00 | 56 | 1019.5 |
| 20260509104438 | 63 | 41 | 3.0 | 8.0 | 0.00 | 0.00 | 0.00 | 54 | 1019.6 |
| 20260509103702 | 62 | 111 | 3.0 | 8.0 | 0.00 | 0.00 | 0.00 | 54 | 1019.7 |
| 20260509103422 | 62 | 108 | 3.0 | 8.0 | 0.00 | 0.00 | 0.00 | 55 | 1019.7 |
| 20260509102648 | 62 | 20 | 3.0 | 6.0 | 0.00 | 0.00 | 0.00 | 56 | 1019.7 |
| 20260509102144 | 62 | 116 | 3.0 | 9.0 | 0.00 | 0.00 | 0.00 | 56 | 1019.8 |
| 20260509101637 | 62 | 103 | 3.0 | 9.0 | 0.00 | 0.00 | 0.00 | 57 | 1019.8 |
| 20260509101134 | 63 | 115 | 2.0 | 7.0 | 0.00 | 0.00 | 0.00 | 56 | 1019.8 |
| 20260509100626 | 62 | 3 | 2.0 | 7.0 | 0.00 | 0.00 | 0.00 | 57 | 1019.8 |
| 20260509100120 | 62 | 113 | 3.0 | 9.0 | 0.00 | 0.00 | 0.00 | 58 | 1019.8 |
| 20260509095617 | 62 | 124 | 3.0 | 9.0 | 0.00 | 0.00 | 0.00 | 58 | 1019.8 |
| 20260509095108 | 61 | 76 | 3.0 | 6.0 | 0.00 | 0.00 | 0.00 | 59 | 1019.8 |
| 20260509094602 | 61 | 108 | 3.0 | 6.0 | 0.00 | 0.00 | 0.00 | 58 | 1019.8 |
| 20260509094312 | 61 | 105 | 3.0 | 6.0 | 0.00 | 0.00 | 0.00 | 59 | 1019.9 |
| 20260509093812 | 61 | 104 | 3.0 | 8.0 | 0.00 | 0.00 | 0.00 | 58 | 1019.9 |
| 20260509093046 | 61 | 86 | 3.0 | 6.0 | 0.00 | 0.00 | 0.00 | 59 | 1019.9 |
| 20260509092538 | 60 | 116 | 3.0 | 7.0 | 0.00 | 0.00 | 0.00 | 59 | 1020.0 |
| 20260509092036 | 60 | 83 | 4.0 | 8.0 | 0.00 | 0.00 | 0.00 | 59 | 1019.9 |
| 20260509091525 | 60 | 118 | 3.0 | 7.0 | 0.00 | 0.00 | 0.00 | 58 | 1019.9 |
| 20260509091023 | 60 | 107 | 2.0 | 6.0 | 0.00 | 0.00 | 0.00 | 58 | 1019.9 |
| 20260509090512 | 60 | 115 | 3.0 | 7.0 | 0.00 | 0.00 | 0.00 | 56 | 1019.9 |
| 20260509090224 | 60 | 115 | 4.0 | 7.0 | 0.00 | 0.00 | 0.00 | 58 | 1019.9 |
| 20260509085503 | 60 | 106 | 3.0 | 7.0 | 0.00 | 0.00 | 0.00 | 57 | 1019.9 |
| 20260509084954 | 60 | 103 | 3.0 | 8.0 | 0.00 | 0.00 | 0.00 | 57 | 1019.9 |
| 20260509084449 | 60 | 71 | 3.0 | 8.0 | 0.00 | 0.00 | 0.00 | 56 | 1019.9 |
| 20260509083942 | 60 | 96 | 3.0 | 7.0 | 0.00 | 0.00 | 0.00 | 55 | 1019.9 |
| 20260509083437 | 59 | 62 | 4.0 | 7.0 | 0.00 | 0.00 | 0.00 | 55 | 1019.9 |
| 20260509082932 | 59 | 136 | 3.0 | 7.0 | 0.00 | 0.00 | 0.00 | 54 | 1019.9 |
| 20260509082429 | 59 | 98 | 2.0 | 6.0 | 0.00 | 0.00 | 0.00 | 53 | 1019.9 |
| 20260509082155 | 59 | 99 | 3.0 | 6.0 | 0.00 | 0.00 | 0.00 | 48 | 1019.9 |
| 20260509081413 | 59 | 106 | 4.0 | 9.0 | 0.00 | 0.00 | 0.00 | 49 | 1019.8 |
| 20260509080909 | 58 | 89 | 4.0 | 9.0 | 0.00 | 0.00 | 0.00 | 51 | 1019.9 |
| 20260509080404 | 59 | 117 | 4.0 | 7.0 | 0.00 | 0.00 | 0.00 | 48 | 1019.9 |
| 20260509075857 | 59 | 108 | 3.0 | 7.0 | 0.00 | 0.00 | 0.00 | 47 | 1019.9 |
| 20260509075350 | 59 | 77 | 3.0 | 7.0 | 0.00 | 0.00 | 0.00 | 44 | 1020.0 |
| 20260509074844 | 59 | 107 | 3.0 | 7.0 | 0.00 | 0.00 | 0.00 | 46 | 1020.0 |
| 20260509074341 | 59 | 105 | 3.0 | 8.0 | 0.00 | 0.00 | 0.00 | 40 | 1020.1 |
| 20260509073834 | 58 | 123 | 3.0 | 8.0 | 0.00 | 0.00 | 0.00 | 39 | 1020.0 |
| 20260509073328 | 58 | 110 | 3.0 | 8.0 | 0.00 | 0.00 | 0.00 | 39 | 1020.0 |
| 20260509072819 | 58 | 65 | 3.0 | 8.0 | 0.00 | 0.00 | 0.00 | 39 | 1020.1 |
| 20260509072313 | 58 | 129 | 3.0 | 7.0 | 0.00 | 0.00 | 0.00 | 38 | 1020.1 |
| 20260509071808 | 58 | 112 | 3.0 | 7.0 | 0.00 | 0.00 | 0.00 | 36 | 1020.1 |
| 20260509071312 | 58 | 94 | 3.0 | 7.0 | 0.00 | 0.00 | 0.00 | 32 | 1020.1 |
| 20260509070808 | 57 | 82 | 3.0 | 7.0 | 0.00 | 0.00 | 0.00 | 30 | 1020.0 |
| 20260509070310 | 57 | 118 | 3.0 | 7.0 | 0.00 | 0.00 | 0.00 | 27 | 1020.1 |
| 20260509065809 | 57 | 9 | 2.0 | 7.0 | 0.00 | 0.00 | 0.00 | 20 | 1020.1 |
| 20260509065310 | 56 | 97 | 2.0 | 5.0 | 0.00 | 0.00 | 0.00 | 5 | 1020.1 |
| 20260509064808 | 56 | 129 | 3.0 | 5.0 | 0.00 | 0.00 | 0.00 | 2 | 1020.1 |
| 20260509064307 | 56 | 117 | 3.0 | 8.0 | 0.00 | 0.00 | 0.00 | 1 | 1020.1 |
| 20260509064050 | 55 | 71 | 3.0 | 8.0 | 0.00 | 0.00 | 0.00 | 1 | 1020.2 |
| 20260509063310 | 55 | 103 | 3.0 | 8.0 | 0.00 | 0.00 | 0.00 | 1 | 1020.2 |
| 20260509062805 | 55 | 117 | 2.0 | 8.0 | 0.00 | 0.00 | 0.00 | 1 | 1020.2 |
| 20260509062306 | 55 | 126 | 2.0 | 7.0 | 0.00 | 0.00 | 0.00 | 1 | 1020.2 |
| 20260509061807 | 54 | 115 | 3.0 | 7.0 | 0.00 | 0.00 | 0.00 | 1 | 1020.2 |
| 20260509061313 | 54 | 123 | 3.0 | 6.0 | 0.00 | 0.00 | 0.00 | 1 | 1020.1 |
| 20260509060816 | 54 | 120 | 2.0 | 6.0 | 0.00 | 0.00 | 0.00 | 1 | 1020.1 |
| 20260509060302 | 54 | 86 | 2.0 | 6.0 | 0.00 | 0.00 | 0.00 | 1 | 1020.1 |
| 20260509055805 | 54 | 103 | 2.0 | 5.0 | 0.00 | 0.00 | 0.00 | 1 | 1020.1 |
| 20260509055306 | 54 | 80 | 2.0 | 5.0 | 0.00 | 0.00 | 0.00 | 1 | 1020.1 |
| 20260509054805 | 54 | 125 | 2.0 | 6.0 | 0.00 | 0.00 | 0.00 | 1 | 1020.1 |
| 20260509054302 | 53 | 103 | 2.0 | 6.0 | 0.00 | 0.00 | 0.00 | 1 | 1020.1 |
| 20260509053800 | 53 | 81 | 2.0 | 4.0 | 0.00 | 0.00 | 0.00 | 1 | 1020.0 |
| 20260509053529 | 53 | 105 | 2.0 | 4.0 | 0.00 | 0.00 | 0.00 | 1 | 1020.0 |
| 20260509052759 | 53 | 110 | 1.0 | 4.0 | 0.00 | 0.00 | 0.00 | 1 | 1019.9 |
| 20260509052526 | 53 | 120 | 1.0 | 4.0 | 0.00 | 0.00 | 0.00 | 1 | 1019.9 |
| 20260509051757 | 53 | 110 | 1.0 | 4.0 | 0.00 | 0.00 | 0.00 | 1 | 1019.9 |
| 20260509051259 | 53 | 117 | 1.0 | 4.0 | 0.00 | 0.00 | 0.00 | 1 | 1019.8 |
| 20260509050759 | 52 | 83 | 1.0 | 4.0 | 0.00 | 0.00 | 0.00 | 1 | 1019.7 |
| 20260509050302 | 52 | 89 | 0.0 | 3.0 | 0.00 | 0.00 | 0.00 | 1 | 1019.7 |
| 20260509045759 | 52 | 77 | 0.0 | 2.0 | 0.00 | 0.00 | 0.00 | 1 | 1019.6 |
| 20260509045258 | 52 | 101 | 0.0 | 2.0 | 0.00 | 0.00 | 0.00 | 1 | 1019.6 |
| 20260509044801 | 51 | 101 | 0.0 | 2.0 | 0.00 | 0.00 | 0.00 | 1 | 1019.6 |
| 20260509044258 | 51 | 98 | 0.0 | 0.0 | 0.00 | 0.00 | 0.00 | 1 | 1019.5 |
| 20260509043759 | 51 | 99 | 0.0 | 0.0 | 0.00 | 0.00 | 0.00 | 1 | 1019.5 |
| 20260509043259 | 51 | 99 | 0.0 | 0.0 | 0.00 | 0.00 | 0.00 | 1 | 1019.5 |
| 20260509042758 | 51 | 97 | 0.0 | 0.0 | 0.00 | 0.00 | 0.00 | 1 | 1019.5 |
| 20260509042258 | 51 | 96 | 0.0 | 0.0 | 0.00 | 0.00 | 0.00 | 1 | 1019.5 |
| 20260509041758 | 51 | 96 | 0.0 | 0.0 | 0.00 | 0.00 | 0.00 | 1 | 1019.4 |
| 20260509041300 | 51 | 96 | 0.0 | 0.0 | 0.00 | 0.00 | 0.00 | 1 | 1019.5 |
| 20260509041025 | 51 | 95 | 0.0 | 0.0 | 0.00 | 0.00 | 0.00 | 1 | 1019.5 |
| 20260509040259 | 51 | 96 | 0.0 | 0.0 | 0.00 | 0.00 | 0.00 | 1 | 1019.5 |
| 20260509035800 | 51 | 96 | 0.0 | 0.0 | 0.00 | 0.00 | 0.00 | 1 | 1019.5 |
| 20260509035754 | 51 | 96 | 0.0 | 0.0 | 0.00 | 0.00 | 0.00 | 1 | 1019.5 |
| 20260509034800 | 51 | 96 | 0.0 | 0.0 | 0.00 | 0.00 | 0.00 | 1 | 1019.5 |
| 20260509034258 | 50 | 96 | 0.0 | 0.0 | 0.00 | 0.00 | 0.00 | 1 | 1019.5 |
| 20260509033800 | 51 | 96 | 0.0 | 0.0 | 0.00 | 0.00 | 0.00 | 1 | 1019.4 |
| 20260509033513 | 51 | 96 | 0.0 | 0.0 | 0.00 | 0.00 | 0.00 | 1 | 1019.4 |
| 20260509032747 | 51 | 96 | 0.0 | 0.0 | 0.00 | 0.00 | 0.00 | 1 | 1019.4 |
| 20260509032241 | 51 | 96 | 0.0 | 0.0 | 0.00 | 0.00 | 0.00 | 1 | 1019.5 |
| 20260509031736 | 51 | 96 | 0.0 | 0.0 | 0.00 | 0.00 | 0.00 | 1 | 1019.5 |
| 20260509031231 | 51 | 96 | 0.0 | 0.0 | 0.00 | 0.00 | 0.00 | 1 | 1019.6 |
| 20260509030724 | 51 | 95 | 0.0 | 1.0 | 0.00 | 0.00 | 0.00 | 1 | 1019.6 |
| 20260509030218 | 51 | 95 | 0.0 | 1.0 | 0.00 | 0.00 | 0.00 | 1 | 1019.6 |
| 20260509025710 | 51 | 94 | 0.0 | 0.0 | 0.00 | 0.00 | 0.00 | 1 | 1019.6 |
| 20260509025206 | 51 | 91 | 0.0 | 0.0 | 0.00 | 0.00 | 0.00 | 1 | 1019.6 |
| 20260509024659 | 51 | 91 | 0.0 | 2.0 | 0.00 | 0.00 | 0.00 | 1 | 1019.6 |
| 20260509024423 | 51 | 93 | 0.0 | 2.0 | 0.00 | 0.00 | 0.00 | 1 | 1019.6 |
| 20260509023656 | 52 | 96 | 0.0 | 2.0 | 0.00 | 0.00 | 0.00 | 1 | 1019.5 |
| 20260509023156 | 52 | 93 | 1.0 | 2.0 | 0.00 | 0.00 | 0.00 | 1 | 1019.5 |
| 20260509022657 | 52 | 86 | 0.0 | 2.0 | 0.00 | 0.00 | 0.00 | 1 | 1019.5 |
| 20260509022154 | 52 | 98 | 0.0 | 2.0 | 0.00 | 0.00 | 0.00 | 1 | 1019.5 |
| 20260509021655 | 51 | 98 | 0.0 | 2.0 | 0.00 | 0.00 | 0.00 | 1 | 1019.6 |
| 20260509021151 | 51 | 98 | 0.0 | 2.0 | 0.00 | 0.00 | 0.00 | 1 | 1019.6 |
| 20260509020647 | 52 | 85 | 0.0 | 2.0 | 0.00 | 0.00 | 0.00 | 1 | 1019.6 |
| 20260509020147 | 52 | 100 | 0.0 | 0.0 | 0.00 | 0.00 | 0.00 | 1 | 1019.7 |
| 20260509015648 | 52 | 99 | 0.0 | 2.0 | 0.00 | 0.00 | 0.00 | 1 | 1019.6 |
| 20260509015149 | 52 | 91 | 0.0 | 2.0 | 0.00 | 0.00 | 0.00 | 1 | 1019.7 |
| 20260509014644 | 52 | 103 | 0.0 | 1.0 | 0.00 | 0.00 | 0.00 | 1 | 1019.7 |
| 20260509014409 | 52 | 86 | 0.0 | 1.0 | 0.00 | 0.00 | 0.00 | 1 | 1019.7 |
| 20260509013643 | 52 | 96 | 0.0 | 0.0 | 0.00 | 0.00 | 0.00 | 1 | 1019.7 |
| 20260509013415 | 52 | 89 | 0.0 | 2.0 | 0.00 | 0.00 | 0.00 | 1 | 1019.7 |
| 20260509012906 | 52 | 77 | 0.0 | 2.0 | 0.00 | 0.00 | 0.00 | 1 | 1019.7 |
| 20260509012139 | 52 | 113 | 0.0 | 1.0 | 0.00 | 0.00 | 0.00 | 1 | 1019.7 |
| 20260509011855 | 52 | 104 | 0.0 | 1.0 | 0.00 | 0.00 | 0.00 | 1 | 1019.7 |
| 20260509011137 | 52 | 105 | 0.0 | 0.0 | 0.00 | 0.00 | 0.00 | 1 | 1019.7 |
| 20260509010640 | 52 | 94 | 0.0 | 0.0 | 0.00 | 0.00 | 0.00 | 1 | 1019.7 |
| 20260509010137 | 52 | 106 | 0.0 | 0.0 | 0.00 | 0.00 | 0.00 | 1 | 1019.7 |
| 20260509005626 | 52 | 105 | 0.0 | 0.0 | 0.00 | 0.00 | 0.00 | 1 | 1019.8 |
| 20260509005120 | 52 | 105 | 0.0 | 1.0 | 0.00 | 0.00 | 0.00 | 1 | 1019.8 |
| 20260509004614 | 52 | 110 | 0.0 | 1.0 | 0.00 | 0.00 | 0.00 | 1 | 1019.8 |
| 20260509004108 | 52 | 99 | 0.0 | 1.0 | 0.00 | 0.00 | 0.00 | 1 | 1019.8 |
| 20260509003601 | 52 | 108 | 0.0 | 0.0 | 0.00 | 0.00 | 0.00 | 1 | 1019.7 |
| 20260509003057 | 52 | 108 | 0.0 | 0.0 | 0.00 | 0.00 | 0.00 | 1 | 1019.8 |
| 20260509002810 | 53 | 109 | 0.0 | 0.0 | 0.00 | 0.00 | 0.00 | 1 | 1019.7 |
| 20260509002046 | 53 | 109 | 0.0 | 0.0 | 0.00 | 0.00 | 0.00 | 1 | 1019.7 |
| 20260509001537 | 53 | 108 | 0.0 | 0.0 | 0.00 | 0.00 | 0.00 | 1 | 1019.7 |
| 20260509001033 | 53 | 108 | 0.0 | 1.0 | 0.00 | 0.00 | 0.00 | 1 | 1019.7 |
| 20260509000800 | 53 | 108 | 0.0 | 1.0 | 0.00 | 0.00 | 0.00 | 1 | 1019.6 |
| 20260509000023 | 53 | 108 | 0.0 | 1.0 | 0.00 | 0.00 | 0.00 | 1 | 1019.6 |
| 20260508235517 | 53 | 108 | 0.0 | 0.0 | 0.00 | 0.00 | 0.00 | 1 | 1019.6 |
| 20260508235232 | 54 | 103 | 0.0 | 0.0 | 0.00 | 0.00 | 0.00 | 6 | 1019.6 |
| 20260508234725 | 54 | 103 | 0.0 | 0.0 | 0.00 | 0.00 | 0.00 | 10 | 1019.6 |
| 20260508234000 | 54 | 103 | 0.0 | 0.0 | 0.00 | 0.00 | 0.00 | 11 | 1019.6 |
| 20260508233719 | 55 | 103 | 0.0 | 0.0 | 0.00 | 0.00 | 0.00 | 14 | 1019.6 |
| 20260508232945 | 55 | 103 | 0.0 | 0.0 | 0.00 | 0.00 | 0.00 | 18 | 1019.5 |
| 20260508232707 | 55 | 101 | 0.0 | 0.0 | 0.00 | 0.00 | 0.00 | 20 | 1019.5 |
| 20260508231932 | 55 | 101 | 0.0 | 0.0 | 0.00 | 0.00 | 0.00 | 22 | 1019.5 |
| 20260508231426 | 56 | 93 | 0.0 | 0.0 | 0.00 | 0.00 | 0.00 | 23 | 1019.5 |
| 20260508230920 | 56 | 98 | 0.0 | 3.0 | 0.00 | 0.00 | 0.00 | 26 | 1019.5 |
| 20260508230414 | 56 | 56 | 0.0 | 3.0 | 0.00 | 0.00 | 0.00 | 26 | 1019.5 |
| 20260508225908 | 56 | 113 | 0.0 | 2.0 | 0.00 | 0.00 | 0.00 | 26 | 1019.5 |
| 20260508225402 | 56 | 110 | 0.0 | 0.0 | 0.00 | 0.00 | 0.00 | 26 | 1019.5 |
| 20260508224855 | 56 | 107 | 0.0 | 3.0 | 0.00 | 0.00 | 0.00 | 28 | 1019.5 |
| 20260508224625 | 57 | 94 | 0.0 | 3.0 | 0.00 | 0.00 | 0.00 | 32 | 1019.6 |
| 20260508223846 | 57 | 93 | 1.0 | 3.0 | 0.00 | 0.00 | 0.00 | 36 | 1019.6 |
| 20260508223339 | 57 | 98 | 0.0 | 3.0 | 0.00 | 0.00 | 0.00 | 38 | 1019.5 |
| 20260508222833 | 57 | 114 | 0.0 | 2.0 | 0.00 | 0.00 | 0.00 | 42 | 1019.6 |
| 20260508222327 | 57 | 114 | 0.0 | 2.0 | 0.00 | 0.00 | 0.00 | 44 | 1019.5 |
| 20260508221820 | 57 | 40 | 0.0 | 0.0 | 0.00 | 0.00 | 0.00 | 48 | 1019.4 |
| 20260508221314 | 57 | 40 | 0.0 | 0.0 | 0.00 | 0.00 | 0.00 | 50 | 1019.4 |
| 20260508220808 | 57 | 40 | 0.0 | 0.0 | 0.00 | 0.00 | 0.00 | 51 | 1019.4 |
| 20260508220320 | 57 | 40 | 0.0 | 0.0 | 0.00 | 0.00 | 0.00 | 51 | 1019.4 |
| 20260508215757 | 58 | 40 | 0.0 | 0.0 | 0.00 | 0.00 | 0.00 | 54 | 1019.4 |
| 20260508215252 | 58 | 40 | 0.0 | 0.0 | 0.00 | 0.00 | 0.00 | 54 | 1019.4 |
| 20260508215006 | 58 | 40 | 0.0 | 1.0 | 0.00 | 0.00 | 0.00 | 55 | 1019.4 |
| 20260508214239 | 58 | 40 | 0.0 | 1.0 | 0.00 | 0.00 | 0.00 | 56 | 1019.4 |
| 20260508213731 | 58 | 40 | 0.0 | 1.0 | 0.00 | 0.00 | 0.00 | 56 | 1019.5 |
| 20260508213227 | 58 | 91 | 0.0 | 0.0 | 0.00 | 0.00 | 0.00 | 56 | 1019.4 |
| 20260508212721 | 58 | 91 | 0.0 | 0.0 | 0.00 | 0.00 | 0.00 | 56 | 1019.4 |
| 20260508212214 | 58 | 102 | 0.0 | 2.0 | 0.00 | 0.00 | 0.00 | 56 | 1019.4 |
| 20260508211708 | 58 | 95 | 0.0 | 2.0 | 0.00 | 0.00 | 0.00 | 55 | 1019.5 |
| 20260508211202 | 59 | 100 | 0.0 | 2.0 | 0.00 | 0.00 | 0.00 | 55 | 1019.4 |
| 20260508210656 | 59 | 93 | 0.0 | 2.0 | 0.00 | 0.00 | 0.00 | 55 | 1019.4 |
| 20260508210149 | 59 | 88 | 0.0 | 2.0 | 0.00 | 0.00 | 0.00 | 56 | 1019.4 |
| 20260508205644 | 59 | 88 | 0.0 | 2.0 | 0.00 | 0.00 | 0.00 | 55 | 1019.4 |
| 20260508205139 | 59 | 110 | 0.0 | 0.0 | 0.00 | 0.00 | 0.00 | 55 | 1019.4 |
| 20260508204852 | 59 | 63 | 0.0 | 0.0 | 0.00 | 0.00 | 0.00 | 56 | 1019.3 |
| 20260508204348 | 59 | 61 | 0.0 | 2.0 | 0.00 | 0.00 | 0.00 | 56 | 1019.3 |
| 20260508203620 | 59 | 71 | 0.0 | 3.0 | 0.00 | 0.00 | 0.00 | 56 | 1019.4 |
| 20260508203340 | 60 | 30 | 0.0 | 3.0 | 0.00 | 0.00 | 0.00 | 57 | 1019.3 |
| 20260508202608 | 60 | 79 | 0.0 | 0.0 | 0.00 | 0.00 | 0.00 | 58 | 1019.3 |
| 20260508202102 | 60 | 76 | 0.0 | 0.0 | 0.00 | 0.00 | 0.00 | 58 | 1019.3 |
| 20260508201556 | 60 | 76 | 0.0 | 0.0 | 0.00 | 0.00 | 0.00 | 58 | 1019.4 |
| 20260508201051 | 60 | 79 | 0.0 | 0.0 | 0.00 | 0.00 | 0.00 | 58 | 1019.4 |
| 20260508200558 | 60 | 79 | 0.0 | 0.0 | 0.00 | 0.00 | 0.00 | 58 | 1019.3 |
| 20260508200545 | 60 | 79 | 0.0 | 0.0 | 0.00 | 0.00 | 0.00 | 58 | 1019.4 |
| 20260508195533 | 60 | 79 | 0.0 | 0.0 | 0.00 | 0.00 | 0.00 | 59 | 1019.3 |
| 20260508195027 | 60 | 97 | 0.0 | 0.0 | 0.00 | 0.00 | 0.00 | 58 | 1019.3 |
| 20260508194748 | 60 | 68 | 0.0 | 0.0 | 0.00 | 0.00 | 0.00 | 59 | 1019.2 |
| 20260508194017 | 60 | 78 | 0.0 | 0.0 | 0.00 | 0.00 | 0.00 | 58 | 1019.2 |